"Timestamp","TZ","WindDir_Mean (deg)","WindSpd_Mean (km/h)","WindSpd_Min (km/h)","WindSpd_Max (km/h)","Temp_Mean (deg)","RH_Mean (%)","MSLP_Mean (hPa)","Rain_Acc (mm)","Rain_Intensity (mm/h)","Hail_Acc (hits/cm2)","Hail_Intensity (hits/cm2hr)","Solar_Mean (W/m2)"
2020/06/04 00:00:00.000,n,277,2.16,1.8,2.88,12.4,64.6,1025.92,0,0,0,0,0.026131
2020/06/04 00:01:00.000,n,240,2.52,2.16,2.88,12.3,64.5,1025.92,0,0,0,0,0.027885
2020/06/04 00:02:00.000,n,234,3.96,2.88,4.68,12.3,64.300004,1025.92,0,0,0,0,0.027008
2020/06/04 00:03:00.000,n,232,1.44,1.08,1.44,12.3,64.300004,1025.92,0,0,0,0,0.023537
2020/06/04 00:04:00.005,n,254,4.32,3.96,4.32,12.3,64.300004,1026.02,0,0,0,0,0.024414
2020/06/04 00:05:00.003,n,265,3.24,2.52,3.96,12.3,64.1,1026.02,0,0,0,0,0.026131
2020/06/04 00:06:00.000,n,265,2.16,1.8,2.88,12.2,64.1,1026.02,0,0,0,0,0.020065
2020/06/04 00:07:00.000,n,252,3.24,2.88,3.6,12.2,64.199996,1026.02,0,0,0,0,0.023537
2020/06/04 00:08:00.010,n,323,1.44,1.08,1.8,12.2,64.199996,1026.02,0,0,0,0,0.021782
2020/06/04 00:09:00.009,n,277,2.16,1.08,2.52,12.2,64.4,1026.02,0,0,0,0,0.019188
2020/06/04 00:10:00.000,n,275,1.08,0.72,1.44,12.2,64.300004,1026.02,0,0,0,0,0.020905
2020/06/04 00:11:00.002,n,318,1.08,0.72,1.08,12.2,64.4,1025.92,0,0,0,0,0.019188
2020/06/04 00:12:00.000,n,249,4.32,3.24,5.04,12.1,64.5,1025.92,0,0,0,0,0.020065
2020/06/04 00:13:00.000,n,206,1.08,0.72,1.8,12.1,64.5,1025.92,0,0,0,0,0.018272
2020/06/04 00:14:00.000,n,80,0.72,0.36,1.8,12.1,64.699996,1025.92,0,0,0,0,0.022621
2020/06/04 00:15:00.008,n,224,0.72,0.36,1.08,12.1,64.699996,1025.92,0,0,0,0,0.020905
2020/06/04 00:16:00.005,n,189,1.8,1.44,2.16,12.1,64.800004,1025.92,0,0,0,0,0.027008
2020/06/04 00:17:00.001,n,261,1.44,0.72,2.16,12.1,64.800004,1025.92,0,0,0,0,0.033112
2020/06/04 00:18:00.014,n,169,1.08,0.36,1.44,12.1,64.9,1025.92,0,0,0,0,0.033951
2020/06/04 00:19:00.000,n,274,1.08,0.72,1.08,12.1,64.800004,1026.02,0,0,0,0,0.027008
2020/06/04 00:20:00.000,n,302,0.72,0.36,1.08,12.1,64.800004,1026.02,0,0,0,0,0.027008
2020/06/04 00:21:00.000,n,192,0.36,0,0.36,12.1,64.9,1026.02,0,0,0,0,0.029602
2020/06/04 00:22:00.005,n,301,1.8,1.08,2.16,12.1,65.1,1026.02,0,0,0,0,0.030479
2020/06/04 00:23:00.004,n,242,1.8,1.08,1.8,12.1,65.1,1026.02,0,0,0,0,0.029602
2020/06/04 00:24:00.001,n,231,1.8,0.72,2.88,12.1,65.1,1026.02,0,0,0,0,0.033112
2020/06/04 00:25:00.000,n,222,1.08,0.36,1.8,12.1,65.1,1026.02,0,0,0,0,0.027885
2020/06/04 00:26:00.011,n,351,2.88,1.8,4.32,12.1,65.300004,1026.02,0,0,0,0,0.029602
2020/06/04 00:27:00.009,n,249,3.96,2.88,5.76,12.1,65.199996,1026.02,0,0,0,0,0.033112
2020/06/04 00:28:00.000,n,121,1.44,0.72,2.52,12.1,65.199996,1026.02,0,0,0,0,0.027885
2020/06/04 00:29:00.002,n,211,2.88,1.8,3.24,12.1,65,1026.02,0,0,0,0,0.028763
2020/06/04 00:30:00.000,n,112,2.16,1.8,2.16,12.1,65,1026.02,0,0,0,0,0.026131
2020/06/04 00:31:00.000,n,225,2.16,1.08,5.04,12,65,1026.02,0,0,0,0,0.029602
2020/06/04 00:32:00.000,n,342,1.44,0.36,2.16,12,65.1,1025.92,0,0,0,0,0.027885
2020/06/04 00:33:00.007,n,280,6.48,5.4,7.56,12,65.4,1025.92,0,0,0,0,0.026131
2020/06/04 00:34:00.005,n,273,2.16,0.36,2.88,12,65.199996,1025.92,0,0,0,0,0.027008
2020/06/04 00:35:00.001,n,199,1.08,0.36,2.16,12,65.199996,1025.92,0,0,0,0,0.027008
2020/06/04 00:36:00.014,n,278,2.16,1.8,2.88,12,65.1,1026.02,0,0,0,0,0.026131
2020/06/04 00:37:00.000,n,229,1.08,0.72,1.8,12,65.1,1026.02,0,0,0,0,0.024414
2020/06/04 00:38:00.000,n,131,2.16,1.8,2.16,12,65.199996,1026.02,0,0,0,0,0.027885
2020/06/04 00:39:00.000,n,128,3.24,2.52,4.32,11.9,65.300004,1026.02,0,0,0,0,0.022659
2020/06/04 00:40:00.003,n,141,2.52,2.16,3.6,11.9,65.199996,1026.02,0,0,0,0,0.025253
2020/06/04 00:41:00.001,n,179,3.24,2.52,3.6,11.9,65.300004,1026.02,0,0,0,0,0.027885
2020/06/04 00:42:00.000,n,145,2.16,1.8,2.16,12,65.300004,1026.12,0,0,0,0,0.025253
2020/06/04 00:43:00.010,n,188,1.8,1.08,2.16,12,65.199996,1026.12,0,0,0,0,0.018272
2020/06/04 00:44:00.007,n,151,1.8,1.08,2.88,12,65.199996,1026.12,0,0,0,0,0.024414
2020/06/04 00:45:00.004,n,132,3.24,2.88,3.24,12,65.300004,1026.12,0,0,0,0,0.021782
2020/06/04 00:46:00.002,n,171,2.88,2.52,3.24,11.9,65.300004,1026.12,0,0,0,0,0.028763
2020/06/04 00:47:00.000,n,153,2.88,2.88,2.88,11.9,65.5,1026.12,0,0,0,0,0.03746
2020/06/04 00:48:00.000,n,161,3.6,3.24,3.96,11.9,65.4,1026.12,0,0,0,0,0.036583
2020/06/04 00:49:00.007,n,197,2.52,1.8,3.24,11.9,65.5,1026.02,0,0,0,0,0.031357
2020/06/04 00:50:00.004,n,172,1.8,1.08,2.88,11.8,65.5,1026.02,0,0,0,0,0.033112
2020/06/04 00:51:00.002,n,262,4.68,4.32,5.04,11.8,65.4,1026.12,0,0,0,0,0.035706
2020/06/04 00:52:00.000,n,151,1.08,1.08,1.08,11.8,65.4,1026.12,0,0,0,0,0.033951
2020/06/04 00:53:00.011,n,339,1.08,0.72,1.44,11.8,65.5,1026.12,0,0,0,0,0.033112
2020/06/04 00:54:00.009,n,143,0.36,0.36,1.08,11.8,65.6,1026.12,0,0,0,0,0.030479
2020/06/04 00:55:00.000,n,236,4.68,4.32,5.04,11.8,65.4,1026.12,0,0,0,0,0.0383
2020/06/04 00:56:00.002,n,222,3.6,2.16,5.04,11.8,65.300004,1026.12,0,0,0,0,0.033951
2020/06/04 00:57:00.000,n,167,4.68,3.6,5.4,11.8,65.300004,1026.12,0,0,0,0,0.032234
2020/06/04 00:58:00.000,n,146,2.52,1.8,2.88,11.8,65.300004,1026.12,0,0,0,0,0.028763
2020/06/04 00:59:00.000,n,154,6.84,6.48,7.2,11.8,65.4,1026.12,0,0,0,0,0.029602
2020/06/04 01:00:00.007,n,112,4.32,3.96,4.68,11.8,65.5,1026.02,0,0,0,0,0.028763
2020/06/04 01:01:00.004,n,188,1.44,1.08,2.16,11.8,65.5,1026.12,0,0,0,0,0.034866
2020/06/04 01:02:00.001,n,155,3.6,3.24,3.96,11.7,65.699996,1026.12,0,0,0,0,0.033951
2020/06/04 01:03:00.014,n,260,5.4,3.96,6.48,11.7,65.699996,1026.12,0,0,0,0,0.031357
2020/06/04 01:04:00.000,n,252,3.96,3.24,3.96,11.7,65.6,1026.12,0,0,0,0,0.031357
2020/06/04 01:05:00.000,n,283,2.52,0.36,3.96,11.7,65.6,1026.12,0,0,0,0,0.032234
2020/06/04 01:06:00.000,n,279,3.6,2.16,4.32,11.7,65.4,1026.12,0,0,0,0,0.032234
2020/06/04 01:07:00.003,n,235,0.72,0.36,1.08,11.6,65.4,1026.12,0,0,0,0,0.026131
2020/06/04 01:08:00.001,n,247,3.96,3.24,4.68,11.6,65.300004,1026.22,0,0,0,0,0.023537
2020/06/04 01:09:00.000,n,214,0.72,0.36,0.72,11.6,65.300004,1026.12,0,0,0,0,0.029602
2020/06/04 01:10:00.010,n,116,0.72,0,1.08,11.6,65.300004,1026.22,0,0,0,0,0.029602
2020/06/04 01:11:00.008,n,355,1.44,0.72,2.16,11.6,65.4,1026.22,0,0,0,0,0.030479
2020/06/04 01:12:00.006,n,204,1.44,0.36,3.24,11.6,65.300004,1026.22,0,0,0,0,0.025253
2020/06/04 01:13:00.000,n,175,2.52,1.8,3.24,11.6,65.4,1026.22,0,0,0,0,0.032234
2020/06/04 01:14:00.000,n,205,2.88,2.16,3.6,11.6,65.5,1026.22,0,0,0,0,0.029602
2020/06/04 01:15:00.000,n,153,1.8,0.72,3.24,11.6,65.800004,1026.22,0,0,0,0,0.023537
2020/06/04 01:16:00.000,n,54,1.08,0.36,1.44,11.6,65.4,1026.22,0,0,0,0,0.028763
2020/06/04 01:17:00.007,n,169,2.16,1.08,3.6,11.6,65.4,1026.22,0,0,0,0,0.027008
2020/06/04 01:18:00.004,n,185,8.28,7.92,8.28,11.6,65.199996,1026.22,0,0,0,0,0.027008
2020/06/04 01:19:00.002,n,228,2.88,1.44,3.6,11.6,65.199996,1026.22,0,0,0,0,0.027008
2020/06/04 01:20:00.000,n,210,1.08,0.72,2.16,11.6,65.300004,1026.22,0,0,0,0,0.027885
2020/06/04 01:21:00.011,n,189,3.6,1.44,6.84,11.6,65.199996,1026.22,0,0,0,0,0.02964
2020/06/04 01:22:00.000,n,211,1.08,0.72,1.44,11.6,65.199996,1026.22,0,0,0,0,0.033989
2020/06/04 01:23:00.000,n,221,3.24,2.88,3.96,11.6,65.199996,1026.22,0,0,0,0,0.033112
2020/06/04 01:24:00.004,n,120,1.44,0.72,2.16,11.6,65.199996,1026.22,0,0,0,0,0.033112
2020/06/04 01:25:00.002,n,151,2.52,1.8,3.24,11.5,65.199996,1026.22,0,0,0,0,0.031357
2020/06/04 01:26:00.000,n,133,1.8,1.44,2.16,11.5,65.199996,1026.22,0,0,0,0,0.027008
2020/06/04 01:27:00.000,n,224,1.08,0.72,2.16,11.5,65.4,1026.22,0,0,0,0,0.032272
2020/06/04 01:28:00.009,n,199,3.6,3.24,3.96,11.5,65.199996,1026.22,0,0,0,0,0.02964
2020/06/04 01:29:00.006,n,214,2.52,1.8,2.88,11.5,65.1,1026.22,0,0,0,0,0.03746
2020/06/04 01:30:00.004,n,281,1.8,1.08,2.52,11.5,65,1026.22,0,0,0,0,0.02964
2020/06/04 01:31:00.001,n,218,3.6,2.88,4.32,11.5,65,1026.32,0,0,0,0,0.028763
2020/06/04 01:32:00.000,n,184,3.96,3.24,4.32,11.4,64.9,1026.32,0,0,0,0,0.02964
2020/06/04 01:33:00.000,n,122,0.72,0,1.44,11.4,64.9,1026.32,0,0,0,0,0.028763
2020/06/04 01:34:00.000,n,319,3.24,2.16,3.6,11.4,64.9,1026.22,0,0,0,0,0.02964
2020/06/04 01:35:00.006,n,246,4.68,3.6,5.04,11.4,64.9,1026.22,0,0,0,0,0.028763
2020/06/04 01:36:00.003,n,247,4.32,3.6,5.04,11.4,64.9,1026.32,0,0,0,0,0.027008
2020/06/04 01:37:00.000,n,283,3.24,2.16,4.32,11.4,65,1026.32,0,0,0,0,0.027008
2020/06/04 01:38:00.000,n,247,0.72,0.36,1.08,11.4,65,1026.32,0,0,0,0,0.028763
2020/06/04 01:39:00.012,n,277,2.88,1.8,3.96,11.4,65.1,1026.32,0,0,0,0,0.02964
2020/06/04 01:40:00.000,n,301,2.88,2.52,3.6,11.4,65.300004,1026.32,0,0,0,0,0.030518
2020/06/04 01:41:00.000,n,329,1.44,1.08,2.16,11.4,65.300004,1026.32,0,0,0,0,0.032272
2020/06/04 01:42:00.003,n,272,2.16,2.16,2.88,11.4,65.300004,1026.32,0,0,0,0,0.031357
2020/06/04 01:43:00.001,n,302,2.52,0.72,3.6,11.4,65.300004,1026.22,0,0,0,0,0.032272
2020/06/04 01:44:00.000,n,260,3.6,2.88,3.96,11.4,65.4,1026.22,0,0,0,0,0.022659
2020/06/04 01:45:00.000,n,241,0.72,0.36,1.08,11.4,65.5,1026.22,0,0,0,0,0.027008
2020/06/04 01:46:00.009,n,156,2.16,2.16,2.16,11.4,65.5,1026.22,0,0,0,0,0.031357
2020/06/04 01:47:00.006,n,354,1.08,0.72,2.16,11.4,65.699996,1026.22,0,0,0,0,0.030518
2020/06/04 01:48:00.003,n,240,3.6,3.24,3.96,11.4,65.6,1026.22,0,0,0,0,0.02964
2020/06/04 01:49:00.000,n,133,0.72,0.36,1.08,11.4,65.800004,1026.12,0,0,0,0,0.025291
2020/06/04 01:50:00.000,n,292,3.24,2.52,3.6,11.4,65.699996,1026.12,0,0,0,0,0.025291
2020/06/04 01:51:00.000,n,181,2.88,2.16,3.6,11.4,65.699996,1026.22,0,0,0,0,0.027008
2020/06/04 01:52:00.000,n,270,3.96,3.24,4.32,11.5,65.699996,1026.12,0,0,0,0,0.027885
2020/06/04 01:53:00.005,n,235,4.32,3.6,5.4,11.4,65.699996,1026.12,0,0,0,0,0.023537
2020/06/04 01:54:00.002,n,273,3.6,3.24,4.32,11.4,65.800004,1026.12,0,0,0,0,0.027885
2020/06/04 01:55:00.000,n,300,1.8,1.08,2.16,11.4,65.699996,1026.12,0,0,0,0,0.027008
2020/06/04 01:56:00.014,n,289,3.24,2.52,3.6,11.4,66,1026.22,0,0,0,0,0.022659
2020/06/04 01:57:00.011,n,236,2.88,2.52,3.6,11.4,65.800004,1026.12,0,0,0,0,0.027008
2020/06/04 01:58:00.000,n,306,3.6,3.24,3.96,11.4,65.6,1026.12,0,0,0,0,0.022659
2020/06/04 01:59:00.000,n,278,2.88,2.52,2.88,11.4,65.6,1026.12,0,0,0,0,0.022659
2020/06/04 02:00:00.004,n,282,3.6,1.8,5.76,11.4,66,1026.12,0,0,0,0,0.023537
2020/06/04 02:01:00.003,n,262,3.24,2.88,3.6,11.4,65.6,1026.12,0,0,0,0,0.024414
2020/06/04 02:02:00.000,n,274,1.44,1.08,2.16,11.4,65.800004,1026.12,0,0,0,0,0.01915
2020/06/04 02:03:00.000,n,298,2.88,2.88,3.6,11.4,65.6,1026.22,0,0,0,0,0.021782
2020/06/04 02:04:00.010,n,231,1.8,1.08,2.52,11.4,65.6,1026.12,0,0,0,0,0.020943
2020/06/04 02:05:00.007,n,269,3.6,3.6,3.96,11.4,65.699996,1026.22,0,0,0,0,0.022659
2020/06/04 02:06:00.003,n,279,3.24,2.16,3.6,11.4,65.4,1026.12,0,0,0,0,0.027008
2020/06/04 02:07:00.000,n,259,0.36,0,0.72,11.4,65.4,1026.22,0,0,0,0,0.033951
2020/06/04 02:08:00.000,n,291,1.44,0.36,2.88,11.3,65.4,1026.12,0,0,0,0,0.035706
2020/06/04 02:09:00.000,n,279,4.32,3.96,4.68,11.3,65.4,1026.12,0,0,0,0,0.033073
2020/06/04 02:10:00.000,n,270,6.12,5.04,6.84,11.3,65.300004,1026.12,0,0,0,0,0.031357
2020/06/04 02:11:00.006,n,274,1.44,1.08,2.16,11.3,65.300004,1026.22,0,0,0,0,0.033073
2020/06/04 02:12:00.003,n,155,2.88,2.16,3.6,11.3,65.5,1026.12,0,0,0,0,0.031357
2020/06/04 02:13:00.000,n,214,2.52,2.16,2.88,11.3,65.6,1026.12,0,0,0,0,0.030479
2020/06/04 02:14:00.012,n,243,2.52,2.16,2.88,11.3,65.699996,1026.12,0,0,0,0,0.030479
2020/06/04 02:15:00.009,n,279,2.16,1.8,2.88,11.4,65.5,1026.12,0,0,0,0,0.031357
2020/06/04 02:16:00.000,n,285,3.96,2.52,5.04,11.4,66.5,1026.12,0,0,0,0,0.032234
2020/06/04 02:17:00.000,n,259,3.96,3.6,4.32,11.4,65.699996,1026.12,0,0,0,0,0.027885
2020/06/04 02:18:00.000,n,281,5.4,1.44,7.56,11.4,65.4,1026.12,0,0,0,0,0.031357
2020/06/04 02:19:00.000,n,265,4.68,4.68,5.4,11.4,65.199996,1026.12,0,0,0,0,0.028725
2020/06/04 02:20:00.000,n,263,3.96,3.24,5.76,11.4,65.199996,1026.02,0,0,0,0,0.029602
2020/06/04 02:21:00.008,n,271,3.96,3.96,3.96,11.4,65.300004,1026.02,0,0,0,0,0.025253
2020/06/04 02:22:00.006,n,268,5.04,4.68,5.76,11.4,65.300004,1026.02,0,0,0,0,0.030479
2020/06/04 02:23:00.004,n,272,2.52,2.16,2.88,11.4,65.1,1026.02,0,0,0,0,0.028725
2020/06/04 02:24:00.001,n,18,2.52,2.16,3.24,11.4,65.4,1026.02,0,0,0,0,0.028725
2020/06/04 02:25:00.000,n,262,2.16,1.44,2.52,11.4,65.5,1026.12,0,0,0,0,0.030479
2020/06/04 02:26:00.000,n,240,3.24,2.52,3.96,11.4,65.199996,1026.12,0,0,0,0,0.029602
2020/06/04 02:27:00.000,n,333,1.8,1.08,2.16,11.4,65.199996,1026.02,0,0,0,0,0.029602
2020/06/04 02:28:00.006,n,357,1.44,0.72,1.8,11.4,65.300004,1026.02,0,0,0,0,0.027885
2020/06/04 02:29:00.004,n,285,2.88,2.16,3.24,11.4,65.300004,1026.02,0,0,0,0,0.027008
2020/06/04 02:30:00.000,n,317,1.8,1.44,2.52,11.3,65.1,1026.02,0,0,0,0,0.028725
2020/06/04 02:31:00.000,n,266,1.8,1.44,1.8,11.3,65,1026.02,0,0,0,0,0.029602
2020/06/04 02:32:00.011,n,158,2.16,2.16,2.52,11.3,65.1,1026.02,0,0,0,0,0.029602
2020/06/04 02:33:00.009,n,317,1.44,1.08,2.16,11.4,66,1026.02,0,0,0,0,0.027008
2020/06/04 02:34:00.000,n,203,2.16,1.08,3.24,11.4,65.300004,1026.02,0,0,0,0,0.024376
2020/06/04 02:35:00.002,n,290,4.32,3.6,5.04,11.4,65.300004,1026.02,0,0,0,0,0.025253
2020/06/04 02:36:00.000,n,279,2.16,2.16,2.52,11.4,65.1,1026.02,0,0,0,0,0.022621
2020/06/04 02:37:00.000,n,281,1.44,1.08,1.44,11.4,65.6,1026.02,0,0,0,0,0.023537
2020/06/04 02:38:00.000,n,258,3.6,2.52,4.68,11.4,65.199996,1026.02,0,0,0,0,0.024376
2020/06/04 02:39:00.007,n,317,2.88,1.8,3.96,11.4,65.1,1026.02,0,0,0,0,0.029602
2020/06/04 02:40:00.005,n,173,1.8,0.72,2.88,11.4,65,1026.02,0,0,0,0,0.025253
2020/06/04 02:41:00.003,n,255,3.6,3.24,3.96,11.4,65,1026.02,0,0,0,0,0.029602
2020/06/04 02:42:00.015,n,187,1.8,0.72,2.16,11.4,65.1,1026.02,0,0,0,0,0.025253
2020/06/04 02:43:00.000,n,281,4.32,3.6,5.04,11.4,65.1,1026.02,0,0,0,0,0.030479
2020/06/04 02:44:00.000,n,277,3.6,1.08,4.68,11.4,65.1,1026.02,0,0,0,0,0.027885
2020/06/04 02:45:00.000,n,221,2.16,0.72,3.24,11.4,65.1,1026.02,0,0,0,0,0.033073
2020/06/04 02:46:00.005,n,252,4.32,3.6,4.68,11.4,65.1,1026.02,0,0,0,0,0.027885
2020/06/04 02:47:00.002,n,245,5.04,4.68,5.4,11.4,65.1,1026.02,0,0,0,0,0.028725
2020/06/04 02:48:00.000,n,251,6.12,5.04,7.2,11.4,65.1,1026.02,0,0,0,0,0.027885
2020/06/04 02:49:00.012,n,281,2.52,1.8,3.24,11.4,65.199996,1026.02,0,0,0,0,0.027008
2020/06/04 02:50:00.009,n,279,4.32,3.6,5.76,11.4,65.199996,1026.02,0,0,0,0,0.026131
2020/06/04 02:51:00.006,n,259,0.72,0.36,1.8,11.4,65.1,1026.02,0,0,0,0,0.027008
2020/06/04 02:52:00.000,n,266,1.8,1.44,2.16,11.4,65.300004,1026.02,0,0,0,0,0.025253
2020/06/04 02:53:00.001,n,276,4.32,3.24,5.4,11.4,65.300004,1026.02,0,0,0,0,0.023537
2020/06/04 02:54:00.000,n,247,2.52,2.16,2.88,11.4,65.4,1026.02,0,0,0,0,0.023537
2020/06/04 02:55:00.000,n,275,3.6,3.6,4.32,11.4,65.4,1026.02,0,0,0,0,0.027008
2020/06/04 02:56:00.008,n,231,2.52,1.44,3.24,11.4,65.5,1026.02,0,0,0,0,0.025253
2020/06/04 02:57:00.006,n,267,3.6,3.24,3.96,11.4,65.4,1026.02,0,0,0,0,0.027885
2020/06/04 02:58:00.003,n,285,5.04,3.96,5.76,11.4,65.4,1026.02,0,0,0,0,0.024376
2020/06/04 02:59:00.000,n,266,2.52,2.16,3.24,11.4,65.6,1026.02,0,0,0,0,0.027008
2020/06/04 03:00:00.013,n,299,0.72,0.72,1.08,11.4,65.300004,1026.02,0,0,0,0,0.025253
2020/06/04 03:01:00.000,n,292,3.6,2.52,4.32,11.4,65.300004,1026.02,0,0,0,0,0.027008
2020/06/04 03:02:00.000,n,245,1.8,1.08,3.6,11.4,65.4,1025.92,0,0,0,0,0.026131
2020/06/04 03:03:00.004,n,262,3.6,2.88,4.32,11.4,65.300004,1025.92,0,0,0,0,0.026131
2020/06/04 03:04:00.001,n,316,2.52,1.8,3.6,11.4,65.300004,1025.92,0,0,0,0,0.024376
2020/06/04 03:05:00.000,n,292,4.32,2.52,5.76,11.4,65.300004,1025.92,0,0,0,0,0.024376
2020/06/04 03:06:00.000,n,220,2.16,1.44,2.52,11.4,65.1,1025.92,0,0,0,0,0.024376
2020/06/04 03:07:00.008,n,238,1.08,0.36,1.08,11.4,65.1,1025.92,0,0,0,0,0.020905
2020/06/04 03:08:00.005,n,115,0.36,0,0.72,11.4,65,1025.92,0,0,0,0,0.021744
2020/06/04 03:09:00.003,n,311,0.72,0.36,0.72,11.3,65.1,1025.92,0,0,0,0,0.022621
2020/06/04 03:10:00.000,n,159,1.44,1.08,1.8,11.3,65.300004,1025.92,0,0,0,0,0.022621
2020/06/04 03:11:00.000,n,272,3.6,0.72,5.04,11.3,65.300004,1025.92,0,0,0,0,0.027885
2020/06/04 03:12:00.000,n,356,2.16,0.72,2.88,11.3,65.4,1025.92,0,0,0,0,0.025253
2020/06/04 03:13:00.000,n,253,2.16,1.8,2.16,11.4,65.4,1025.92,0,0,0,0,0.026131
2020/06/04 03:14:00.004,n,279,2.88,2.16,3.24,11.3,65.4,1025.92,0,0,0,0,0.025253
2020/06/04 03:15:00.001,n,221,3.6,3.24,4.32,11.4,65.5,1025.92,0,0,0,0,0.026131
2020/06/04 03:16:00.000,n,297,1.44,0.72,2.16,11.4,65.4,1025.92,0,0,0,0,0.027008
2020/06/04 03:17:00.011,n,231,3.24,1.8,5.04,11.4,65.5,1025.92,0,0,0,0,0.026131
2020/06/04 03:18:00.009,n,260,4.32,3.24,5.76,11.4,65.4,1025.92,0,0,0,0,0.025253
2020/06/04 03:19:00.000,n,288,1.8,1.08,2.16,11.4,65.6,1025.92,0,0,0,0,0.025253
2020/06/04 03:20:00.002,n,209,2.16,2.16,2.52,11.3,65.6,1025.92,0,0,0,0,0.023537
2020/06/04 03:21:00.000,n,265,6.12,5.76,6.48,11.3,65.699996,1025.92,0,0,0,0,0.026131
2020/06/04 03:22:00.000,n,276,4.68,3.96,5.04,11.3,65.9,1025.92,0,0,0,0,0.024376
2020/06/04 03:23:00.000,n,256,6.12,4.68,7.2,11.3,65.9,1025.92,0,0,0,0,0.023537
2020/06/04 03:24:00.007,n,266,6.12,5.76,6.84,11.4,65.9,1025.92,0,0,0,0,0.027008
2020/06/04 03:25:00.004,n,249,1.44,0.72,2.16,11.4,65.800004,1025.92,0,0,0,0,0.027885
2020/06/04 03:26:00.001,n,325,1.08,0.72,1.8,11.4,65.800004,1025.82,0,0,0,0,0.028725
2020/06/04 03:27:00.014,n,282,3.24,2.88,3.6,11.3,65.800004,1025.82,0,0,0,0,0.024376
2020/06/04 03:28:00.000,n,254,6.48,6.12,6.84,11.3,65.9,1025.82,0,0,0,0,0.023537
2020/06/04 03:29:00.000,n,256,3.6,3.24,3.96,11.3,65.9,1025.82,0,0,0,0,0.021744
2020/06/04 03:30:00.000,n,249,1.8,1.44,2.16,11.3,65.9,1025.82,0,0,0,0,0.020905
2020/06/04 03:31:00.002,n,246,1.08,1.08,1.44,11.3,65.800004,1025.92,0,0,0,0,0.023537
2020/06/04 03:32:00.000,n,157,2.16,1.44,2.88,11.3,65.9,1025.92,0,0,0,0,0.020905
2020/06/04 03:33:00.000,n,135,0.72,0.36,1.08,11.3,66.300004,1025.92,0,0,0,0,0.022621
2020/06/04 03:34:00.009,n,71,1.08,0.72,1.8,11.3,66.300004,1025.92,0,0,0,0,0.021744
2020/06/04 03:35:00.006,n,277,1.44,1.08,2.52,11.3,66.1,1025.92,0,0,0,0,0.020027
2020/06/04 03:36:00.002,n,129,1.44,1.08,2.52,11.3,66.199996,1025.92,0,0,0,0,0.021744
2020/06/04 03:37:00.000,n,215,1.08,0.72,1.44,11.3,66.199996,1025.92,0,0,0,0,0.023537
2020/06/04 03:38:00.000,n,215,1.8,1.08,2.52,11.3,66.300004,1025.92,0,0,0,0,0.027008
2020/06/04 03:39:00.000,n,330,0.72,0.36,0.72,11.3,66.4,1025.92,0,0,0,0,0.024376
2020/06/04 03:40:00.000,n,226,1.44,1.08,1.44,11.3,66.300004,1025.92,0,0,0,0,0.022621
2020/06/04 03:41:00.005,n,159,0.72,0.72,1.08,11.3,66.4,1025.92,0,0,0,0,0.022621
2020/06/04 03:42:00.003,n,135,2.16,1.8,2.16,11.2,66.6,1025.92,0,0,0,0,0.024376
2020/06/04 03:43:00.000,n,153,4.32,1.8,5.04,11.2,67,1025.92,0,0,0,0,0.027008
2020/06/04 03:44:00.013,n,151,3.96,3.6,4.68,11.2,67.1,1025.92,0,0,0,0,0.022621
2020/06/04 03:45:00.010,n,196,1.08,0.72,1.8,11.2,67.3,1025.92,0,0,0,0,0.023537
2020/06/04 03:46:00.000,n,208,0.72,0.72,1.08,11.1,67.4,1025.92,0,0,0,0,0.025253
2020/06/04 03:47:00.000,n,267,5.76,5.4,6.48,11.1,67.3,1025.92,0,0,0,0,0.020905
2020/06/04 03:48:00.001,n,253,3.96,3.6,4.32,11.1,67.3,1025.92,0,0,0,0,0.020027
2020/06/04 03:49:00.000,n,267,2.88,2.52,3.6,11.1,67.3,1025.92,0,0,0,0,0.023537
2020/06/04 03:50:00.000,n,177,1.8,1.44,2.16,11.1,67.4,1025.92,0,0,0,0,0.01915
2020/06/04 03:51:00.008,n,158,1.8,1.8,2.16,11.1,67.4,1025.92,0,0,0,0,0.018272
2020/06/04 03:52:00.005,n,230,2.88,2.16,3.96,11.1,67.4,1025.92,0,0,0,0,0.021744
2020/06/04 03:53:00.002,n,243,1.08,0.72,1.44,11.1,67.2,1025.92,0,0,0,0,0.01915
2020/06/04 03:54:00.016,n,238,0.72,0.36,1.08,11.1,67.2,1025.92,0,0,0,0,0.018272
2020/06/04 03:55:00.000,n,293,1.44,0.72,1.8,11,67.2,1025.92,0,0,0,0,0.021744
2020/06/04 03:56:00.000,n,81,1.8,0.36,3.96,11,67.2,1025.92,0,0,0,0,0.016556
2020/06/04 03:57:00.000,n,225,1.44,0.72,1.8,11,67.2,1026.02,0,0,0,0,0.020027
2020/06/04 03:58:00.004,n,125,1.44,0.72,2.52,11,67.2,1026.02,0,0,0,0,0.01915
2020/06/04 03:59:00.000,n,163,1.8,1.08,2.52,11,67.3,1026.02,0,0,0,0,0.018272
2020/06/04 04:00:00.000,n,193,0.72,0.36,1.8,11,66.9,1026.02,0,0,0,0,0.017395
2020/06/04 04:01:00.011,n,278,3.24,2.52,3.6,11,67.1,1026.02,0,0,0,0,0.021744
2020/06/04 04:02:00.009,n,255,1.8,1.8,2.16,11,67,1026.02,0,0,0,0,0.020905
2020/06/04 04:03:00.005,n,262,2.16,1.8,2.52,11,66.9,1026.02,0,0,0,0,0.017395
2020/06/04 04:04:00.002,n,263,3.96,3.6,3.96,11,67.1,1026.02,0,0,0,0,0.027885
2020/06/04 04:05:00.000,n,148,1.8,1.08,2.52,11,67,1026.02,0,0,0,0,0.035744
2020/06/04 04:06:00.000,n,176,0.36,0.36,1.08,11,67,1026.02,0,0,0,0,0.03746
2020/06/04 04:07:00.000,n,210,0.36,0,0.72,11,66.9,1026.02,0,0,0,0,0.031395
2020/06/04 04:08:00.004,n,9,2.16,1.8,2.52,11,67.2,1026.02,0,0,0,0,0.032234
2020/06/04 04:09:00.001,n,250,2.52,2.52,2.88,11,67.1,1026.02,0,0,0,0,0.035744
2020/06/04 04:10:00.000,n,176,1.44,1.08,1.8,11,67,1026.02,0,0,0,0,0.034866
2020/06/04 04:11:00.012,n,314,2.16,1.44,2.52,10.9,67.4,1026.12,0,0,0,0,0.033112
2020/06/04 04:12:00.009,n,226,1.08,0.72,1.44,10.9,67.6,1026.12,0,0,0,0,0.033112
2020/06/04 04:13:00.000,n,275,3.6,2.52,3.96,10.9,67.6,1026.12,0,0,0,0,0.031395
2020/06/04 04:14:00.002,n,300,3.24,1.8,3.6,10.9,67.8,1026.12,0,0,0,0,0.033989
2020/06/04 04:15:00.000,n,273,2.52,2.16,2.88,10.8,67.9,1026.12,0,0,0,0,0.032234
2020/06/04 04:16:00.000,n,245,2.52,2.16,2.52,10.8,68.1,1026.12,0,0,0,0,0.032234
2020/06/04 04:17:00.000,n,256,1.8,1.08,1.8,10.8,68.2,1026.12,0,0,0,0,0.033112
2020/06/04 04:18:00.009,n,262,3.24,3.24,3.6,10.7,68.5,1026.12,0,0,0,0,0.034866
2020/06/04 04:19:00.005,n,254,4.68,4.32,5.04,10.7,68.9,1026.12,0,0,0,0,0.031395
2020/06/04 04:20:00.002,n,242,3.6,2.88,4.32,10.7,69.2,1026.12,0,0,0,0,0.032234
2020/06/04 04:21:00.000,n,266,2.16,1.44,2.52,10.7,69.3,1026.12,0,0,0,0,0.035744
2020/06/04 04:22:00.000,n,270,3.6,3.24,3.96,10.7,69.4,1026.12,0,0,0,0,0.02964
2020/06/04 04:23:00.000,n,258,2.88,2.52,3.24,10.6,69.5,1026.12,0,0,0,0,0.028763
2020/06/04 04:24:00.000,n,252,1.8,1.44,2.52,10.6,69.4,1026.12,0,0,0,0,0.02964
2020/06/04 04:25:00.004,n,276,2.16,1.8,2.16,10.6,69.5,1026.22,0,0,0,0,0.030518
2020/06/04 04:26:00.003,n,267,2.88,2.52,3.24,10.5,69.6,1026.22,0,0,0,0,0.027885
2020/06/04 04:27:00.000,n,253,3.6,3.24,3.6,10.5,69.6,1026.22,0,0,0,0,0.032234
2020/06/04 04:28:00.011,n,277,2.16,1.44,2.88,10.5,69.6,1026.22,0,0,0,0,0.027046
2020/06/04 04:29:00.009,n,208,3.24,2.88,3.6,10.5,69.8,1026.22,0,0,0,0,0.02964
2020/06/04 04:30:00.006,n,274,5.04,3.96,6.12,10.5,69.8,1026.22,0,0,0,0,0.02964
2020/06/04 04:31:00.000,n,270,2.52,1.8,3.24,10.4,69.9,1026.22,0,0,0,0,0.027885
2020/06/04 04:32:00.000,n,284,1.44,1.44,1.8,10.4,69.9,1026.22,0,0,0,0,0.022659
2020/06/04 04:33:00.000,n,249,2.88,2.52,3.24,10.4,69.9,1026.22,0,0,0,0,0.02964
2020/06/04 04:34:00.000,n,254,3.96,3.6,5.04,10.4,70,1026.22,0,0,0,0,0.028763
2020/06/04 04:35:00.007,n,285,2.52,1.8,3.24,10.4,70,1026.22,0,0,0,0,0.02964
2020/06/04 04:36:00.005,n,221,2.52,2.16,2.88,10.3,70,1026.22,0,0,0,0,0.026169
2020/06/04 04:37:00.002,n,223,0.72,0.36,1.08,10.3,70,1026.22,0,0,0,0,0.027847
2020/06/04 04:38:00.000,n,277,2.52,1.8,3.24,10.3,70.1,1026.32,0,0,0,0,0.027008
2020/06/04 04:39:00.012,n,215,1.08,0.36,1.8,10.3,70.1,1026.32,0,0,0,0,0.027847
2020/06/04 04:40:00.000,n,326,0.72,0,1.08,10.2,70.1,1026.32,0,0,0,0,0.028725
2020/06/04 04:41:00.000,n,213,1.08,0.36,1.8,10.2,70.2,1026.32,0,0,0,0,0.028725
2020/06/04 04:42:00.004,n,142,2.88,1.44,3.6,10.2,70.5,1026.32,0,0,0,0,0.029602
2020/06/04 04:43:00.001,n,158,4.32,3.6,5.04,10.2,70.6,1026.32,0,0,0,0,0.027008
2020/06/04 04:44:00.000,n,236,1.8,0.72,2.52,10.3,70.6,1026.32,0,0,0,0,0.027847
2020/06/04 04:45:00.000,n,104,1.08,1.08,1.44,10.3,70.7,1026.32,0,0,0,0,0.029602
2020/06/04 04:46:00.010,n,300,3.6,3.6,3.96,10.3,70.9,1026.32,0,0,0,0,0.029602
2020/06/04 04:47:00.006,n,277,2.88,2.52,3.24,10.3,70.6,1026.32,0,0,0,0,0.027847
2020/06/04 04:48:00.004,n,264,2.16,1.8,2.52,10.3,70.3,1026.32,0,0,0,0,0.033073
2020/06/04 04:49:00.002,n,159,0.72,0.36,0.72,10.3,70.4,1026.32,0,0,0,0,0.027008